Regional Weather Roundup
Issued by NWS

Home | Current Version | Previous Version | Text Only | Print | Product List | Glossary Off
Versions: 1 2 3 4 5 6 7 8 9 10 11 12 13 14 15 16 17 18 19 20 21 22 23 24 25 26 27 28 29 30 31 32 33 34 35 36 37 38 39 40 41 42 43 44 45 46 47 48 49 50

000
ASUS45 KBOU 250707
RWRCO

WEATHER ROUNDUP FOR COLORADO
NATIONAL WEATHER SERVICE DENVER/BOULDER CO
100 AM MDT SAT APR 25 2015

NOTE: "FAIR" INDICATES FEW OR NO CLOUDS BELOW 12000 FEET WITH NO
SIGNIFICANT WEATHER AND/OR OBSTRUCTIONS TO VISIBILITY.

COZ001>005-013-030-031-250800-
...NORTHWEST COLORADO...

CITY           SKY/WX    TMP DP  RH WIND       PRES   REMARKS
CRAIG          PTCLDY    42  32  67 NW3       29.78S
HAYDEN         MOCLDY    41  30  65 E10       29.79F
MEEKER         PTCLDY    45  29  53 S5        29.79F
MOUNT WERNER   NOT AVBL
STEAMBOAT SPGS CLOUDY    38  32  80 N3        29.82R
WALDEN         PTCLDY    30  27  86 E7        29.83S WCI  23
$$

COZ006>008-011-250800-
...WEST CENTRAL VALLEYS...

CITY           SKY/WX    TMP DP  RH WIND       PRES   REMARKS
GRAND JUNCTION CLOUDY    51  33  50 SE14      29.76F
MONTROSE       PTCLDY    38  33  82 S5        29.85S
EAGLE          PTCLDY    36  28  75 E5        29.87S
RIFLE          CLEAR     39  31  72 CALM      29.81S
DELTA          NOT AVBL
NUCLA          CLOUDY    52  30  43 S17       29.88S
$$

COZ017>023-064>068-250800-
...SOUTHWEST COLORADO...

CITY           SKY/WX    TMP DP  RH WIND       PRES   REMARKS
DURANGO        LGT RAIN  39  35  86 E3        29.95F
CORTEZ         CLOUDY    51  34  52 S16       29.91S
PAGOSA SPRINGS CLOUDY    36  31  82 CALM      29.99S
TELLURIDE      PTCLDY    33  27  77 CALM      29.99S
WOLF CREEK PAS NOT AVBL
$$

COZ009-010-012-014-032>034-037-058>063-250800-
...CENTRAL COLORADO...

CITY           SKY/WX    TMP DP  RH WIND       PRES   REMARKS
ASPEN          MOCLDY    33  26  75 S9        29.86F WCI  25
BUENA VISTA    CLEAR     39  23  53 N3        29.87S
COPPER MTN     CLOUDY    30  19  64 SW16G22   29.98S WCI  19
BERTHOUD PASS  FAIR      21  14  73 W30G41    29.94S WCI   3
COTTONWOOD PAS CLEAR     37  21  52 W15G25    29.90S
GUNNISON       CLEAR     28  21  74 CALM      29.95R
KREMMLING      CLOUDY    36  27  69 E6        29.86S
LEADVILLE      MOCLDY    29  17  61 N8        29.92S WCI  21
MONARCH PASS   PTCLDY    23  21  93 MISG      30.09R
SALIDA         CLEAR     45  25  45 W9        29.93S
SUNLIGHT       PTCLDY    30  27  86 CALM      29.97F
WILKERSON PASS PTCLDY    28  18  64 W10G21    29.95F WCI  19
$$

COZ069>075-250800-
...SAN LUIS VALLEY/SANGRE DE CRISTO MOUNTAINS...

CITY           SKY/WX    TMP DP  RH WIND       PRES   REMARKS
ALAMOSA        CLEAR     29  20  69 CALM      29.92R
LA VETA PASS   CLEAR     30  21  69 S15G25    29.93S WCI  19
SAGUACHE       CLEAR     32  23  69 NW9       29.92S WCI  24
$$

COZ035-036-038>040-250800-
...NORTHERN COLORADO FRONT RANGE...

CITY           SKY/WX    TMP DP  RH WIND       PRES   REMARKS
DENVER INTL AP PTCLDY    42  32  67 S8        29.71S
DMNS CITY PARK   N/A     45  31  58 S3        29.71S
AURORA         PTCLDY    43  30  62 S9        29.73R
FRONT RANGE AP NOT AVBL
ERIE MUNI ARPT CLEAR     41  32  70 CALM      29.69S
BOULDER MUN AP CLEAR     46  30  53 W6        29.69F
CENTENNIAL     PTCLDY    43  26  51 SW6       29.73R
BROOMFIELD     CLEAR     50  28  43 CALM      29.71S
FORT COLLINS   CLOUDY    46  36  66 SW7       29.70R
LONGMONT       CLOUDY    49  33  53 SW8       29.71R
$$

COZ041-046-047-076>085-087-088-250800-
...PIKES PEAK/PALMER DIVIDE AND SOUTHERN FOOTHILLS...

CITY           SKY/WX    TMP DP  RH WIND       PRES   REMARKS
COLO. SPRINGS  PTCLDY    44  26  49 N8        29.76S
A. F. ACADEMY  CLEAR     44  23  44 E3        29.77R
ELLICOTT       CLEAR    N/A N/A N/A CALM      29.75S
FALCON         CLEAR     44  22  43 NW10      29.78S
FORT CARSON    CLEAR     39  31  70 NW6       29.74R
LIMON          CLEAR     40  36  86 W10       29.72S
MONUMENT HILL  CLEAR     37  25  60 SW8       29.77S
TRINIDAD       CLEAR     42  23  46 W16       29.77S
$$

COZ042>045-048>051-090-091-250800-
...NORTHEAST COLORADO...

CITY           SKY/WX    TMP DP  RH WIND       PRES   REMARKS
GREELEY ARPT   CLOUDY    48  34  57 N7        29.69R
AKRON          CLOUDY    46  38  73 W8        29.66R
BURLINGTON     MOCLDY    49  39  68 W12       29.64S
WRAY           CLOUDY    49  42  76 CALM      29.63R
STERLING       MOCLDY    52  39  62 NW10      29.62R
HOLYOKE        CLOUDY    52  41  66 NW6       29.62F
FORT MORGAN    MOCLDY    54  32  43 NW18G26   29.67R
$$

COZ086-089-092>099-250800-
...SOUTHEAST COLORADO...

CITY           SKY/WX    TMP DP  RH WIND       PRES   REMARKS
PUEBLO         CLEAR     41  34  76 N3        29.71S
LA JUNTA       PTCLDY    51  36  56 W12       29.70R
LAMAR          MOCLDY    47  42  83 S3        29.65R
SPRINGFIELD      N/A     45  37  73 W10       29.69S
$$



USA.gov is the U.S. government's official web portal to all federal, state and local government web resources and services.